owner,sensor,date,latitude,longitude,vertical_datum,wind_speed,wind_to_direction,wind_speed_of_gust,qcFlag 
DISL,ioos:station:DISL:DISL:1,2009-05-01T00:00:00Z,30.2513,-88.0778,9.68,5.21,140.5,-9999.0,'1111122,1111122,1111122' 
DISL,ioos:station:DISL:DISL:1,2009-05-01T00:30:00Z,30.2513,-88.0778,9.68,4.43,142.3,-9999.0,'1111122,1111122,1111122' 
DISL,ioos:station:DISL:DISL:1,2009-05-01T01:00:00Z,30.2513,-88.0778,9.68,4.29,146.1,-9999.0,'1111122,1111122,1111122' 
DISL,ioos:station:DISL:DISL:1,2009-05-01T01:30:00Z,30.2513,-88.0778,9.68,3.99,147.9,-9999.0,'1111122,1111122,1111122' 
DISL,ioos:station:DISL:DISL:1,2009-05-01T02:00:00Z,30.2513,-88.0778,9.68,3.95,145.6,-9999.0,'1111122,1111122,1111122' 
DISL,ioos:station:DISL:DISL:1,2009-05-01T02:30:00Z,30.2513,-88.0778,9.68,3.67,146.8,-9999.0,'1111122,1111122,1111122' 
DISL,ioos:station:DISL:DISL:1,2009-05-01T03:00:00Z,30.2513,-88.0778,9.68,4.5,157.0,-9999.0,'1111122,1111122,1111122' 
DISL,ioos:station:DISL:DISL:1,2009-05-01T03:30:00Z,30.2513,-88.0778,9.68,3.86,153.2,-9999.0,'1111122,1111122,1111122' 
DISL,ioos:station:DISL:DISL:1,2009-05-01T04:00:00Z,30.2513,-88.0778,9.68,3.68,147.5,-9999.0,'1111122,1111122,1111122' 
DISL,ioos:station:DISL:DISL:1,2009-05-01T04:30:00Z,30.2513,-88.0778,9.68,4.42,157.2,-9999.0,'1111122,1111122,1111122' 
DISL,ioos:station:DISL:DISL:1,2009-05-01T05:00:00Z,30.2513,-88.0778,9.68,4.61,153.8,-9999.0,'1111122,1111122,1111122' 
DISL,ioos:station:DISL:DISL:1,2009-05-01T05:30:00Z,30.2513,-88.0778,9.68,4.67,147.9,-9999.0,'1111122,1111122,1111122' 
DISL,ioos:station:DISL:DISL:1,2009-05-01T06:00:00Z,30.2513,-88.0778,9.68,4.87,152.0,-9999.0,'1111122,1111122,1111122' 
DISL,ioos:station:DISL:DISL:1,2009-05-01T06:30:00Z,30.2513,-88.0778,9.68,5.35,152.4,-9999.0,'1111122,1111122,1111122' 
DISL,ioos:station:DISL:DISL:1,2009-05-01T07:00:00Z,30.2513,-88.0778,9.68,5.47,148.1,-9999.0,'1111122,1111122,1111122' 
DISL,ioos:station:DISL:DISL:1,2009-05-01T07:30:00Z,30.2513,-88.0778,9.68,5.02,159.3,-9999.0,'1111122,1111122,1111122' 
DISL,ioos:station:DISL:DISL:1,2009-05-01T08:00:00Z,30.2513,-88.0778,9.68,4.93,169.1,-9999.0,'1111122,1111122,1111122' 
DISL,ioos:station:DISL:DISL:1,2009-05-01T08:30:00Z,30.2513,-88.0778,9.68,4.53,160.4,-9999.0,'1111122,1111122,1111122' 
DISL,ioos:station:DISL:DISL:1,2009-05-01T09:00:00Z,30.2513,-88.0778,9.68,4.51,168.9,-9999.0,'1111122,1111122,1111122' 
DISL,ioos:station:DISL:DISL:1,2009-05-01T09:30:00Z,30.2513,-88.0778,9.68,3.89,170.1,-9999.0,'1111122,1111122,1111122' 
DISL,ioos:station:DISL:DISL:1,2009-05-01T10:00:00Z,30.2513,-88.0778,9.68,3.67,163.9,-9999.0,'1111122,1111122,1111122' 
DISL,ioos:station:DISL:DISL:1,2009-05-01T10:30:00Z,30.2513,-88.0778,9.68,4.47,170.8,-9999.0,'1111122,1111122,1111122' 
DISL,ioos:station:DISL:DISL:1,2009-05-01T11:00:00Z,30.2513,-88.0778,9.68,3.79,165.2,-9999.0,'1111122,1111122,1111122' 
DISL,ioos:station:DISL:DISL:1,2009-05-01T11:30:00Z,30.2513,-88.0778,9.68,3.52,178.9,-9999.0,'1111122,1111122,1111122' 
DISL,ioos:station:DISL:DISL:1,2009-05-01T12:00:00Z,30.2513,-88.0778,9.68,2.45,181.5,-9999.0,'1111122,1111122,1111122' 
DISL,ioos:station:DISL:DISL:1,2009-05-01T12:30:00Z,30.2513,-88.0778,9.68,2.04,183.4,-9999.0,'1111122,1111122,1111122' 
DISL,ioos:station:DISL:DISL:1,2009-05-01T13:00:00Z,30.2513,-88.0778,9.68,1.59,188.0,-9999.0,'1111122,1111122,1111122' 
DISL,ioos:station:DISL:DISL:1,2009-05-01T13:30:00Z,30.2513,-88.0778,9.68,1.96,192.6,-9999.0,'1111122,1111122,1111122' 
DISL,ioos:station:DISL:DISL:1,2009-05-01T14:00:00Z,30.2513,-88.0778,9.68,2.52,180.2,-9999.0,'1111122,1111122,1111122' 
DISL,ioos:station:DISL:DISL:1,2009-05-01T14:30:00Z,30.2513,-88.0778,9.68,2.72,161.7,-9999.0,'1111122,1111122,1111122' 
DISL,ioos:station:DISL:DISL:1,2009-05-01T15:00:00Z,30.2513,-88.0778,9.68,3.3,167.0,-9999.0,'1111122,1111122,1111122' 
DISL,ioos:station:DISL:DISL:1,2009-05-01T15:30:00Z,30.2513,-88.0778,9.68,2.75,153.5,-9999.0,'1111122,1111122,1111122' 
DISL,ioos:station:DISL:DISL:1,2009-05-01T16:00:00Z,30.2513,-88.0778,9.68,3.51,158.9,-9999.0,'1111122,1111122,1111122' 
DISL,ioos:station:DISL:DISL:1,2009-05-01T16:30:00Z,30.2513,-88.0778,9.68,3.34,157.8,-9999.0,'1111122,1111122,1111122' 
DISL,ioos:station:DISL:DISL:1,2009-05-01T17:00:00Z,30.2513,-88.0778,9.68,4.44,158.9,-9999.0,'1111122,1111122,1111122' 
DISL,ioos:station:DISL:DISL:1,2009-05-01T17:30:00Z,30.2513,-88.0778,9.68,3.95,156.0,-9999.0,'1111122,1111122,1111122' 
DISL,ioos:station:DISL:DISL:1,2009-05-01T18:00:00Z,30.2513,-88.0778,9.68,3.58,153.3,-9999.0,'1111122,1111122,1111122' 
DISL,ioos:station:DISL:DISL:1,2009-05-01T18:30:00Z,30.2513,-88.0778,9.68,3.96,148.2,-9999.0,'1111122,1111122,1111122' 
DISL,ioos:station:DISL:DISL:1,2009-05-01T19:00:00Z,30.2513,-88.0778,9.68,3.95,143.0,-9999.0,'1111122,1111122,1111122' 
DISL,ioos:station:DISL:DISL:1,2009-05-01T19:30:00Z,30.2513,-88.0778,9.68,3.97,156.2,-9999.0,'1111122,1111122,1111122' 
DISL,ioos:station:DISL:DISL:1,2009-05-01T20:00:00Z,30.2513,-88.0778,9.68,4.2,156.0,-9999.0,'1111122,1111122,1111122' 
DISL,ioos:station:DISL:DISL:1,2009-05-01T20:30:00Z,30.2513,-88.0778,9.68,3.76,167.1,-9999.0,'1111122,1111122,1111122' 
DISL,ioos:station:DISL:DISL:1,2009-05-01T21:00:00Z,30.2513,-88.0778,9.68,4.14,160.5,-9999.0,'1111122,1111122,1111122' 
DISL,ioos:station:DISL:DISL:1,2009-05-01T21:30:00Z,30.2513,-88.0778,9.68,3.71,157.9,-9999.0,'1111122,1111122,1111122' 
DISL,ioos:station:DISL:DISL:1,2009-05-01T22:00:00Z,30.2513,-88.0778,9.68,3.86,159.3,-9999.0,'1111122,1111122,1111122' 
DISL,ioos:station:DISL:DISL:1,2009-05-01T22:30:00Z,30.2513,-88.0778,9.68,3.6,157.8,-9999.0,'1111122,1111122,1111122' 
DISL,ioos:station:DISL:DISL:1,2009-05-01T23:00:00Z,30.2513,-88.0778,9.68,3.56,173.5,-9999.0,'1111122,1111122,1111122' 
DISL,ioos:station:DISL:DISL:1,2009-05-01T23:30:00Z,30.2513,-88.0778,9.68,3.5,166.9,-9999.0,'1111122,1111122,1111122' 
DISL,ioos:station:DISL:DISL:1,2009-05-02T00:00:00Z,30.2513,-88.0778,9.68,3.59,171.0,-9999.0,'1111122,1111122,1111122' 
DISL,ioos:station:DISL:DISL:1,2009-05-02T00:30:00Z,30.2513,-88.0778,9.68,3.5,173.8,-9999.0,'1111122,1111122,1111122' 
DISL,ioos:station:DISL:DISL:1,2009-05-02T01:00:00Z,30.2513,-88.0778,9.68,4.4,173.3,-9999.0,'1111122,1111122,1111122' 
DISL,ioos:station:DISL:DISL:1,2009-05-02T01:30:00Z,30.2513,-88.0778,9.68,4.71,173.1,-9999.0,'1111122,1111122,1111122' 
DISL,ioos:station:DISL:DISL:1,2009-05-02T02:00:00Z,30.2513,-88.0778,9.68,3.68,168.2,-9999.0,'1111122,1111122,1111122' 
DISL,ioos:station:DISL:DISL:1,2009-05-02T02:30:00Z,30.2513,-88.0778,9.68,3.76,169.5,-9999.0,'1111122,1111122,1111122' 
DISL,ioos:station:DISL:DISL:1,2009-05-02T03:00:00Z,30.2513,-88.0778,9.68,3.59,158.5,-9999.0,'1111122,1111122,1111122' 
DISL,ioos:station:DISL:DISL:1,2009-05-02T03:30:00Z,30.2513,-88.0778,9.68,4.05,157.9,-9999.0,'1111122,1111122,1111122' 
DISL,ioos:station:DISL:DISL:1,2009-05-02T04:00:00Z,30.2513,-88.0778,9.68,3.48,167.5,-9999.0,'1111122,1111122,1111122' 
DISL,ioos:station:DISL:DISL:1,2009-05-02T04:30:00Z,30.2513,-88.0778,9.68,4.01,178.5,-9999.0,'1111122,1111122,1111122' 
DISL,ioos:station:DISL:DISL:1,2009-05-02T05:00:00Z,30.2513,-88.0778,9.68,3.27,182.3,-9999.0,'1111122,1111122,1111122' 
DISL,ioos:station:DISL:DISL:1,2009-05-02T05:30:00Z,30.2513,-88.0778,9.68,3.11,188.0,-9999.0,'1111122,1111122,1111122' 
DISL,ioos:station:DISL:DISL:1,2009-05-02T06:00:00Z,30.2513,-88.0778,9.68,4.08,171.0,-9999.0,'1111122,1111122,1111122' 
DISL,ioos:station:DISL:DISL:1,2009-05-02T06:30:00Z,30.2513,-88.0778,9.68,3.66,173.1,-9999.0,'1111122,1111122,1111122' 
DISL,ioos:station:DISL:DISL:1,2009-05-02T07:00:00Z,30.2513,-88.0778,9.68,3.61,173.8,-9999.0,'1111122,1111122,1111122' 
DISL,ioos:station:DISL:DISL:1,2009-05-02T07:30:00Z,30.2513,-88.0778,9.68,3.46,183.6,-9999.0,'1111122,1111122,1111122' 
DISL,ioos:station:DISL:DISL:1,2009-05-02T08:00:00Z,30.2513,-88.0778,9.68,3.18,172.0,-9999.0,'1111122,1111122,1111122' 
DISL,ioos:station:DISL:DISL:1,2009-05-02T08:30:00Z,30.2513,-88.0778,9.68,3.62,183.1,-9999.0,'1111122,1111122,1111122' 
DISL,ioos:station:DISL:DISL:1,2009-05-02T09:00:00Z,30.2513,-88.0778,9.68,3.42,177.6,-9999.0,'1111122,1111122,1111122' 
DISL,ioos:station:DISL:DISL:1,2009-05-02T09:30:00Z,30.2513,-88.0778,9.68,3.66,180.9,-9999.0,'1111122,1111122,1111122' 
DISL,ioos:station:DISL:DISL:1,2009-05-02T10:00:00Z,30.2513,-88.0778,9.68,2.72,185.2,-9999.0,'1111122,1111122,1111122' 
DISL,ioos:station:DISL:DISL:1,2009-05-02T10:30:00Z,30.2513,-88.0778,9.68,3.18,177.8,-9999.0,'1111122,1111122,1111122' 
DISL,ioos:station:DISL:DISL:1,2009-05-02T11:00:00Z,30.2513,-88.0778,9.68,3.98,171.9,-9999.0,'1111122,1111122,1111122' 
DISL,ioos:station:DISL:DISL:1,2009-05-02T11:30:00Z,30.2513,-88.0778,9.68,2.94,168.0,-9999.0,'1111122,1111122,1111122' 
DISL,ioos:station:DISL:DISL:1,2009-05-02T12:00:00Z,30.2513,-88.0778,9.68,4.11,177.2,-9999.0,'1111122,1111122,1111122' 
DISL,ioos:station:DISL:DISL:1,2009-05-02T12:30:00Z,30.2513,-88.0778,9.68,2.85,193.3,-9999.0,'1111122,1111122,1111122' 
DISL,ioos:station:DISL:DISL:1,2009-05-02T13:00:00Z,30.2513,-88.0778,9.68,2.4,197.6,-9999.0,'1111122,1111122,1111122' 
DISL,ioos:station:DISL:DISL:1,2009-05-02T13:30:00Z,30.2513,-88.0778,9.68,3.22,174.6,-9999.0,'1111122,1111122,1111122' 
DISL,ioos:station:DISL:DISL:1,2009-05-02T14:00:00Z,30.2513,-88.0778,9.68,3.1,178.5,-9999.0,'1111122,1111122,1111122' 
DISL,ioos:station:DISL:DISL:1,2009-05-02T14:30:00Z,30.2513,-88.0778,9.68,3.39,176.1,-9999.0,'1111122,1111122,1111122' 
DISL,ioos:station:DISL:DISL:1,2009-05-02T15:00:00Z,30.2513,-88.0778,9.68,4.27,174.0,-9999.0,'1111122,1111122,1111122' 
DISL,ioos:station:DISL:DISL:1,2009-05-02T15:30:00Z,30.2513,-88.0778,9.68,3.41,165.1,-9999.0,'1111122,1111122,1111122' 
DISL,ioos:station:DISL:DISL:1,2009-05-02T16:00:00Z,30.2513,-88.0778,9.68,2.77,177.3,-9999.0,'1111122,1111122,1111122' 
DISL,ioos:station:DISL:DISL:1,2009-05-02T16:30:00Z,30.2513,-88.0778,9.68,3.24,170.7,-9999.0,'1111122,1111122,1111122' 
DISL,ioos:station:DISL:DISL:1,2009-05-02T17:00:00Z,30.2513,-88.0778,9.68,3.88,172.8,-9999.0,'1111122,1111122,1111122' 
DISL,ioos:station:DISL:DISL:1,2009-05-02T17:30:00Z,30.2513,-88.0778,9.68,4.25,177.8,-9999.0,'1111122,1111122,1111122' 
DISL,ioos:station:DISL:DISL:1,2009-05-02T18:00:00Z,30.2513,-88.0778,9.68,4.11,163.4,-9999.0,'1111122,1111122,1111122' 
DISL,ioos:station:DISL:DISL:1,2009-05-02T18:30:00Z,30.2513,-88.0778,9.68,4.78,170.5,-9999.0,'1111122,1111122,1111122' 
DISL,ioos:station:DISL:DISL:1,2009-05-02T19:00:00Z,30.2513,-88.0778,9.68,4.91,161.7,-9999.0,'1111122,1111122,1111122' 
DISL,ioos:station:DISL:DISL:1,2009-05-02T19:30:00Z,30.2513,-88.0778,9.68,5.04,173.0,-9999.0,'1111122,1111122,1111122' 
DISL,ioos:station:DISL:DISL:1,2009-05-02T20:00:00Z,30.2513,-88.0778,9.68,5.06,178.9,-9999.0,'1111122,1111122,1111122' 
DISL,ioos:station:DISL:DISL:1,2009-05-02T20:30:00Z,30.2513,-88.0778,9.68,5.36,174.5,-9999.0,'1111122,1111122,1111122' 
DISL,ioos:station:DISL:DISL:1,2009-05-02T21:00:00Z,30.2513,-88.0778,9.68,4.96,171.9,-9999.0,'1111122,1111122,1111122' 
DISL,ioos:station:DISL:DISL:1,2009-05-02T21:30:00Z,30.2513,-88.0778,9.68,4.89,173.2,-9999.0,'1111122,1111122,1111122' 
DISL,ioos:station:DISL:DISL:1,2009-05-02T22:00:00Z,30.2513,-88.0778,9.68,5.13,174.0,-9999.0,'1111122,1111122,1111122' 
DISL,ioos:station:DISL:DISL:1,2009-05-02T22:30:00Z,30.2513,-88.0778,9.68,4.75,169.1,-9999.0,'1111122,1111122,1111122' 
DISL,ioos:station:DISL:DISL:1,2009-05-02T23:00:00Z,30.2513,-88.0778,9.68,4.56,173.1,-9999.0,'1111122,1111122,1111122' 
DISL,ioos:station:DISL:DISL:1,2009-05-02T23:30:00Z,30.2513,-88.0778,9.68,4.59,167.7,-9999.0,'1111122,1111122,1111122' 
DISL,ioos:station:DISL:DISL:1,2009-05-03T00:00:00Z,30.2513,-88.0778,9.68,4.75,167.6,-9999.0,'1111122,1111122,1111122' 
DISL,ioos:station:DISL:DISL:1,2009-05-03T00:30:00Z,30.2513,-88.0778,9.68,4.86,163.3,-9999.0,'1111122,1111122,1111122' 
DISL,ioos:station:DISL:DISL:1,2009-05-03T01:00:00Z,30.2513,-88.0778,9.68,5.6,159.3,-9999.0,'1111122,1111122,1111122' 
DISL,ioos:station:DISL:DISL:1,2009-05-03T01:30:00Z,30.2513,-88.0778,9.68,4.66,173.0,-9999.0,'1111122,1111122,1111122' 
DISL,ioos:station:DISL:DISL:1,2009-05-03T02:00:00Z,30.2513,-88.0778,9.68,5.31,166.1,-9999.0,'1111122,1111122,1111122' 
DISL,ioos:station:DISL:DISL:1,2009-05-03T02:30:00Z,30.2513,-88.0778,9.68,5.48,172.4,-9999.0,'1111122,1111122,1111122' 
DISL,ioos:station:DISL:DISL:1,2009-05-03T03:00:00Z,30.2513,-88.0778,9.68,4.97,171.9,-9999.0,'1111122,1111122,1111122' 
DISL,ioos:station:DISL:DISL:1,2009-05-03T03:30:00Z,30.2513,-88.0778,9.68,5.6,176.3,-9999.0,'1111122,1111122,1111122' 
DISL,ioos:station:DISL:DISL:1,2009-05-03T04:00:00Z,30.2513,-88.0778,9.68,5.37,168.0,-9999.0,'1111122,1111122,1111122' 
DISL,ioos:station:DISL:DISL:1,2009-05-03T04:30:00Z,30.2513,-88.0778,9.68,5.98,172.1,-9999.0,'1111122,1111122,1111122' 
DISL,ioos:station:DISL:DISL:1,2009-05-03T05:00:00Z,30.2513,-88.0778,9.68,5.74,169.0,-9999.0,'1111122,1111122,1111122' 
DISL,ioos:station:DISL:DISL:1,2009-05-03T05:30:00Z,30.2513,-88.0778,9.68,5.42,181.3,-9999.0,'1111122,1111122,1111122' 
DISL,ioos:station:DISL:DISL:1,2009-05-03T06:00:00Z,30.2513,-88.0778,9.68,5.17,181.6,-9999.0,'1111122,1111122,1111122' 
DISL,ioos:station:DISL:DISL:1,2009-05-03T06:30:00Z,30.2513,-88.0778,9.68,3.03,186.2,-9999.0,'1111122,1111122,1111122' 
DISL,ioos:station:DISL:DISL:1,2009-05-03T07:00:00Z,30.2513,-88.0778,9.68,3.56,178.6,-9999.0,'1111122,1111122,1111122' 
DISL,ioos:station:DISL:DISL:1,2009-05-03T07:30:00Z,30.2513,-88.0778,9.68,3.21,172.0,-9999.0,'1111122,1111122,1111122' 
DISL,ioos:station:DISL:DISL:1,2009-05-03T08:00:00Z,30.2513,-88.0778,9.68,3.63,172.2,-9999.0,'1111122,1111122,1111122' 
DISL,ioos:station:DISL:DISL:1,2009-05-03T08:30:00Z,30.2513,-88.0778,9.68,3.92,184.7,-9999.0,'1111122,1111122,1111122' 
DISL,ioos:station:DISL:DISL:1,2009-05-03T09:00:00Z,30.2513,-88.0778,9.68,3.86,190.1,-9999.0,'1111122,1111122,1111122' 
DISL,ioos:station:DISL:DISL:1,2009-05-03T09:30:00Z,30.2513,-88.0778,9.68,3.29,195.0,-9999.0,'1111122,1111122,1111122' 
DISL,ioos:station:DISL:DISL:1,2009-05-03T10:00:00Z,30.2513,-88.0778,9.68,4.76,178.5,-9999.0,'1111122,1111122,1111122' 
DISL,ioos:station:DISL:DISL:1,2009-05-03T10:30:00Z,30.2513,-88.0778,9.68,5.25,174.0,-9999.0,'1111122,1111122,1111122' 
DISL,ioos:station:DISL:DISL:1,2009-05-03T11:00:00Z,30.2513,-88.0778,9.68,5.43,179.4,-9999.0,'1111122,1111122,1111122' 
DISL,ioos:station:DISL:DISL:1,2009-05-03T11:30:00Z,30.2513,-88.0778,9.68,5.89,168.5,-9999.0,'1111122,1111122,1111122' 
DISL,ioos:station:DISL:DISL:1,2009-05-03T12:00:00Z,30.2513,-88.0778,9.68,5.85,173.4,-9999.0,'1111122,1111122,1111122' 
DISL,ioos:station:DISL:DISL:1,2009-05-03T12:30:00Z,30.2513,-88.0778,9.68,5.79,173.7,-9999.0,'1111122,1111122,1111122' 
DISL,ioos:station:DISL:DISL:1,2009-05-03T13:00:00Z,30.2513,-88.0778,9.68,5.0,163.7,-9999.0,'1111122,1111122,1111122' 
DISL,ioos:station:DISL:DISL:1,2009-05-03T13:30:00Z,30.2513,-88.0778,9.68,5.15,172.2,-9999.0,'1111122,1111122,1111122' 
DISL,ioos:station:DISL:DISL:1,2009-05-03T14:00:00Z,30.2513,-88.0778,9.68,4.35,183.1,-9999.0,'1111122,1111122,1111122' 
DISL,ioos:station:DISL:DISL:1,2009-05-03T14:30:00Z,30.2513,-88.0778,9.68,5.29,180.5,-9999.0,'1111122,1111122,1111122' 
DISL,ioos:station:DISL:DISL:1,2009-05-03T15:00:00Z,30.2513,-88.0778,9.68,5.47,167.1,-9999.0,'1111122,1111122,1111122' 
DISL,ioos:station:DISL:DISL:1,2009-05-03T15:30:00Z,30.2513,-88.0778,9.68,6.64,158.3,-9999.0,'1111122,1111122,1111122' 
DISL,ioos:station:DISL:DISL:1,2009-05-03T16:00:00Z,30.2513,-88.0778,9.68,6.46,167.3,-9999.0,'1111122,1111122,1111122' 
DISL,ioos:station:DISL:DISL:1,2009-05-03T16:30:00Z,30.2513,-88.0778,9.68,6.33,173.9,-9999.0,'1111122,1111122,1111122' 
DISL,ioos:station:DISL:DISL:1,2009-05-03T17:00:00Z,30.2513,-88.0778,9.68,5.44,172.7,-9999.0,'1111122,1111122,1111122' 
DISL,ioos:station:DISL:DISL:1,2009-05-03T17:30:00Z,30.2513,-88.0778,9.68,4.79,181.0,-9999.0,'1111122,1111122,1111122' 
DISL,ioos:station:DISL:DISL:1,2009-05-03T18:00:00Z,30.2513,-88.0778,9.68,4.13,198.1,-9999.0,'1111122,1111122,1111122' 
DISL,ioos:station:DISL:DISL:1,2009-05-03T18:30:00Z,30.2513,-88.0778,9.68,3.25,202.8,-9999.0,'1111122,1111122,1111122' 
DISL,ioos:station:DISL:DISL:1,2009-05-03T19:00:00Z,30.2513,-88.0778,9.68,3.5,199.9,-9999.0,'1111122,1111122,1111122' 
DISL,ioos:station:DISL:DISL:1,2009-05-03T19:30:00Z,30.2513,-88.0778,9.68,3.33,176.9,-9999.0,'1111122,1111122,1111122' 
DISL,ioos:station:DISL:DISL:1,2009-05-03T20:00:00Z,30.2513,-88.0778,9.68,3.27,177.6,-9999.0,'1111122,1111122,1111122' 
DISL,ioos:station:DISL:DISL:1,2009-05-03T20:30:00Z,30.2513,-88.0778,9.68,3.86,189.4,-9999.0,'1111122,1111122,1111122' 
DISL,ioos:station:DISL:DISL:1,2009-05-03T21:00:00Z,30.2513,-88.0778,9.68,3.72,198.0,-9999.0,'1111122,1111122,1111122' 
DISL,ioos:station:DISL:DISL:1,2009-05-03T21:30:00Z,30.2513,-88.0778,9.68,3.64,211.7,-9999.0,'1111122,1111122,1111122' 
DISL,ioos:station:DISL:DISL:1,2009-05-03T22:00:00Z,30.2513,-88.0778,9.68,2.46,235.7,-9999.0,'1111122,1111122,1111122' 
DISL,ioos:station:DISL:DISL:1,2009-05-03T22:30:00Z,30.2513,-88.0778,9.68,8.67,316.9,-9999.0,'1111122,1111122,1111122' 
DISL,ioos:station:DISL:DISL:1,2009-05-03T23:00:00Z,30.2513,-88.0778,9.68,3.79,312.9,-9999.0,'1111122,1111122,1111122' 
DISL,ioos:station:DISL:DISL:1,2009-05-03T23:30:00Z,30.2513,-88.0778,9.68,2.1,355.1,-9999.0,'1111122,1111122,1111122' 
DISL,ioos:station:DISL:DISL:1,2009-05-04T00:00:00Z,30.2513,-88.0778,9.68,2.24,131.3,-9999.0,'1111122,1111122,1111122' 
DISL,ioos:station:DISL:DISL:1,2009-05-04T00:30:00Z,30.2513,-88.0778,9.68,2.79,143.7,-9999.0,'1111122,1111122,1111122' 
DISL,ioos:station:DISL:DISL:1,2009-05-04T01:00:00Z,30.2513,-88.0778,9.68,3.21,143.1,-9999.0,'1111122,1111122,1111122' 
DISL,ioos:station:DISL:DISL:1,2009-05-04T01:30:00Z,30.2513,-88.0778,9.68,4.55,134.4,-9999.0,'1111122,1111122,1111122' 
DISL,ioos:station:DISL:DISL:1,2009-05-04T02:00:00Z,30.2513,-88.0778,9.68,5.95,130.5,-9999.0,'1111122,1111122,1111122' 
DISL,ioos:station:DISL:DISL:1,2009-05-04T02:30:00Z,30.2513,-88.0778,9.68,7.06,130.4,-9999.0,'1111122,1111122,1111122' 
DISL,ioos:station:DISL:DISL:1,2009-05-04T03:00:00Z,30.2513,-88.0778,9.68,8.22,158.2,-9999.0,'1111122,1111122,1111122' 
DISL,ioos:station:DISL:DISL:1,2009-05-04T03:30:00Z,30.2513,-88.0778,9.68,6.73,165.5,-9999.0,'1111122,1111122,1111122' 
DISL,ioos:station:DISL:DISL:1,2009-05-04T04:00:00Z,30.2513,-88.0778,9.68,6.96,171.4,-9999.0,'1111122,1111122,1111122' 
DISL,ioos:station:DISL:DISL:1,2009-05-04T04:30:00Z,30.2513,-88.0778,9.68,6.16,175.6,-9999.0,'1111122,1111122,1111122' 
DISL,ioos:station:DISL:DISL:1,2009-05-04T05:00:00Z,30.2513,-88.0778,9.68,6.82,170.2,-9999.0,'1111122,1111122,1111122' 
DISL,ioos:station:DISL:DISL:1,2009-05-04T05:30:00Z,30.2513,-88.0778,9.68,7.24,169.3,-9999.0,'1111122,1111122,1111122' 
DISL,ioos:station:DISL:DISL:1,2009-05-04T06:00:00Z,30.2513,-88.0778,9.68,7.04,174.9,-9999.0,'1111122,1111122,1111122' 
DISL,ioos:station:DISL:DISL:1,2009-05-04T06:30:00Z,30.2513,-88.0778,9.68,7.34,176.1,-9999.0,'1111122,1111122,1111122' 
DISL,ioos:station:DISL:DISL:1,2009-05-04T07:00:00Z,30.2513,-88.0778,9.68,6.13,175.8,-9999.0,'1111122,1111122,1111122' 
DISL,ioos:station:DISL:DISL:1,2009-05-04T07:30:00Z,30.2513,-88.0778,9.68,6.57,176.7,-9999.0,'1111122,1111122,1111122' 
DISL,ioos:station:DISL:DISL:1,2009-05-04T08:00:00Z,30.2513,-88.0778,9.68,7.1,184.0,-9999.0,'1111122,1111122,1111122' 
DISL,ioos:station:DISL:DISL:1,2009-05-04T08:30:00Z,30.2513,-88.0778,9.68,7.08,181.8,-9999.0,'1111122,1111122,1111122' 
DISL,ioos:station:DISL:DISL:1,2009-05-04T09:00:00Z,30.2513,-88.0778,9.68,6.48,175.8,-9999.0,'1111122,1111122,1111122' 
DISL,ioos:station:DISL:DISL:1,2009-05-04T09:30:00Z,30.2513,-88.0778,9.68,4.44,196.4,-9999.0,'1111122,1111122,1111122' 
DISL,ioos:station:DISL:DISL:1,2009-05-04T10:00:00Z,30.2513,-88.0778,9.68,4.53,188.7,-9999.0,'1111122,1111122,1111122' 
DISL,ioos:station:DISL:DISL:1,2009-05-04T10:30:00Z,30.2513,-88.0778,9.68,4.79,186.1,-9999.0,'1111122,1111122,1111122' 
DISL,ioos:station:DISL:DISL:1,2009-05-04T11:00:00Z,30.2513,-88.0778,9.68,5.04,197.2,-9999.0,'1111122,1111122,1111122' 
DISL,ioos:station:DISL:DISL:1,2009-05-04T11:30:00Z,30.2513,-88.0778,9.68,5.39,198.4,-9999.0,'1111122,1111122,1111122' 
DISL,ioos:station:DISL:DISL:1,2009-05-04T12:00:00Z,30.2513,-88.0778,9.68,5.14,196.0,-9999.0,'1111122,1111122,1111122' 
DISL,ioos:station:DISL:DISL:1,2009-05-04T12:30:00Z,30.2513,-88.0778,9.68,4.84,192.2,-9999.0,'1111122,1111122,1111122' 
DISL,ioos:station:DISL:DISL:1,2009-05-04T13:00:00Z,30.2513,-88.0778,9.68,5.01,201.9,-9999.0,'1111122,1111122,1111122' 
DISL,ioos:station:DISL:DISL:1,2009-05-04T13:30:00Z,30.2513,-88.0778,9.68,4.76,197.8,-9999.0,'1111122,1111122,1111122' 
DISL,ioos:station:DISL:DISL:1,2009-05-04T14:00:00Z,30.2513,-88.0778,9.68,4.93,198.8,-9999.0,'1111122,1111122,1111122' 
DISL,ioos:station:DISL:DISL:1,2009-05-04T14:30:00Z,30.2513,-88.0778,9.68,5.57,192.0,-9999.0,'1111122,1111122,1111122' 
DISL,ioos:station:DISL:DISL:1,2009-05-04T15:00:00Z,30.2513,-88.0778,9.68,4.3,195.4,-9999.0,'1111122,1111122,1111122' 
DISL,ioos:station:DISL:DISL:1,2009-05-04T15:30:00Z,30.2513,-88.0778,9.68,4.33,188.0,-9999.0,'1111122,1111122,1111122' 
DISL,ioos:station:DISL:DISL:1,2009-05-04T16:00:00Z,30.2513,-88.0778,9.68,4.72,173.3,-9999.0,'1111122,1111122,1111122' 
DISL,ioos:station:DISL:DISL:1,2009-05-04T16:30:00Z,30.2513,-88.0778,9.68,5.45,174.4,-9999.0,'1111122,1111122,1111122' 
DISL,ioos:station:DISL:DISL:1,2009-05-04T17:00:00Z,30.2513,-88.0778,9.68,4.4,184.9,-9999.0,'1111122,1111122,1111122' 
DISL,ioos:station:DISL:DISL:1,2009-05-04T17:30:00Z,30.2513,-88.0778,9.68,4.09,185.3,-9999.0,'1111122,1111122,1111122' 
DISL,ioos:station:DISL:DISL:1,2009-05-04T18:00:00Z,30.2513,-88.0778,9.68,4.0,205.2,-9999.0,'1111122,1111122,1111122' 
DISL,ioos:station:DISL:DISL:1,2009-05-04T18:30:00Z,30.2513,-88.0778,9.68,4.09,205.6,-9999.0,'1111122,1111122,1111122' 
DISL,ioos:station:DISL:DISL:1,2009-05-04T19:00:00Z,30.2513,-88.0778,9.68,2.75,227.8,-9999.0,'1111122,1111122,1111122' 
DISL,ioos:station:DISL:DISL:1,2009-05-04T19:30:00Z,30.2513,-88.0778,9.68,3.36,228.7,-9999.0,'1111122,1111122,1111122' 
DISL,ioos:station:DISL:DISL:1,2009-05-04T20:00:00Z,30.2513,-88.0778,9.68,4.34,198.9,-9999.0,'1111122,1111122,1111122' 
DISL,ioos:station:DISL:DISL:1,2009-05-04T20:30:00Z,30.2513,-88.0778,9.68,4.92,202.3,-9999.0,'1111122,1111122,1111122' 
DISL,ioos:station:DISL:DISL:1,2009-05-04T21:00:00Z,30.2513,-88.0778,9.68,3.43,210.7,-9999.0,'1111122,1111122,1111122' 
DISL,ioos:station:DISL:DISL:1,2009-05-04T21:30:00Z,30.2513,-88.0778,9.68,3.5,215.6,-9999.0,'1111122,1111122,1111122' 
DISL,ioos:station:DISL:DISL:1,2009-05-04T22:00:00Z,30.2513,-88.0778,9.68,3.43,233.0,-9999.0,'1111122,1111122,1111122' 
DISL,ioos:station:DISL:DISL:1,2009-05-04T22:30:00Z,30.2513,-88.0778,9.68,3.96,217.5,-9999.0,'1111122,1111122,1111122' 
DISL,ioos:station:DISL:DISL:1,2009-05-04T23:00:00Z,30.2513,-88.0778,9.68,3.05,206.5,-9999.0,'1111122,1111122,1111122' 
DISL,ioos:station:DISL:DISL:1,2009-05-04T23:30:00Z,30.2513,-88.0778,9.68,3.0,205.5,-9999.0,'1111122,1111122,1111122' 
DISL,ioos:station:DISL:DISL:1,2009-05-05T00:00:00Z,30.2513,-88.0778,9.68,2.93,207.4,-9999.0,'1111122,1111122,1111122' 
DISL,ioos:station:DISL:DISL:1,2009-05-05T00:30:00Z,30.2513,-88.0778,9.68,2.85,200.6,-9999.0,'1111122,1111122,1111122' 
DISL,ioos:station:DISL:DISL:1,2009-05-05T01:00:00Z,30.2513,-88.0778,9.68,3.0,203.2,-9999.0,'1111122,1111122,1111122' 
DISL,ioos:station:DISL:DISL:1,2009-05-05T01:30:00Z,30.2513,-88.0778,9.68,3.24,186.7,-9999.0,'1111122,1111122,1111122' 
DISL,ioos:station:DISL:DISL:1,2009-05-05T02:00:00Z,30.2513,-88.0778,9.68,3.89,178.7,-9999.0,'1111122,1111122,1111122' 
DISL,ioos:station:DISL:DISL:1,2009-05-05T02:30:00Z,30.2513,-88.0778,9.68,4.06,184.5,-9999.0,'1111122,1111122,1111122' 
DISL,ioos:station:DISL:DISL:1,2009-05-05T03:00:00Z,30.2513,-88.0778,9.68,3.62,183.9,-9999.0,'1111122,1111122,1111122' 
DISL,ioos:station:DISL:DISL:1,2009-05-05T03:30:00Z,30.2513,-88.0778,9.68,3.06,182.9,-9999.0,'1111122,1111122,1111122' 